Total_Precipitation_Accumulation
1.17 1.21 1.29 1.38 1.55 1.63 1.60 1.66 1.68 1.70 1.81 1.88 1.96 2.04 2.05 2.06 2.17 2.26 2.14 2.29 2.32 2.41 2.36 2.32 2.29 2.49 2.50 2.29 2.37 2.41 2.61 2.82 2.62 2.34 2.45 2.44 2.33 2.14 2.13 2.10 1.99 1.91 1.69
1.18 1.25 1.35 1.42 1.51 1.58 1.52 1.62 1.80 1.84 1.89 1.92 1.99 2.09 2.03 2.11 2.25 2.20 2.17 2.26 2.33 2.32 2.43 2.61 2.55 2.65 2.60 2.48 2.58 2.56 2.64 2.89 2.82 2.59 2.52 2.51 2.41 2.33 2.22 2.03 1.75 1.69 1.68
1.50 1.46 1.43 1.39 1.45 1.56 1.63 1.69 1.81 1.94 2.01 1.99 1.94 1.99 2.13 2.31 2.33 2.17 2.15 2.17 2.12 2.06 2.23 2.49 2.75 3.13 2.96 2.74 2.58 2.50 2.54 2.63 2.86 2.66 2.50 2.66 2.54 2.45 2.35 2.02 1.80 1.74 1.48
1.35 1.33 1.40 1.44 1.56 1.71 1.77 1.84 1.91 1.94 2.00 2.09 2.10 2.09 2.13 2.16 2.14 2.13 2.18 2.21 2.18 2.03 2.04 2.14 2.30 2.60 2.78 2.89 2.63 2.45 2.52 2.64 2.79 2.75 2.74 2.96 3.02 2.88 2.62 2.24 2.08 1.93 1.73
1.54 1.66 1.78 1.79 1.84 1.96 2.05 2.02 2.06 2.06 2.05 2.24 2.26 2.22 2.17 2.10 1.96 2.13 2.25 2.15 2.20 2.12 2.07 2.03 1.90 2.03 2.21 2.39 2.28 2.54 2.67 2.62 2.70 2.78 2.93 3.32 3.34 3.14 2.64 2.36 2.26 2.17 1.94
1.85 2.11 2.22 2.26 2.31 2.36 2.42 2.42 2.44 2.39 2.50 2.55 2.41 2.34 2.28 2.04 2.16 2.17 2.19 2.20 2.28 2.24 2.16 2.12 1.96 1.84 1.84 1.96 2.02 2.20 2.42 2.45 2.53 2.69 2.81 3.04 3.12 3.06 2.83 2.56 2.33 2.19 1.95
1.88 2.08 2.18 2.29 2.40 2.56 2.60 2.63 2.63 2.65 2.66 2.65 2.69 2.63 2.51 2.53 2.48 2.14 2.07 2.08 2.16 2.19 2.29 2.34 1.97 1.66 1.84 1.79 1.89 1.92 1.88 1.99 2.15 2.34 2.52 2.64 2.96 3.09 3.06 2.63 2.46 2.29 1.99
2.12 2.30 2.40 2.38 2.40 2.48 2.50 2.45 2.48 2.61 2.63 2.59 2.51 2.42 2.39 2.33 2.30 2.03 1.91 1.82 1.91 1.96 1.97 2.00 1.99 1.82 1.72 1.76 1.77 1.67 1.57 1.59 1.71 1.75 1.84 2.12 2.49 2.95 3.19 2.91 2.76 2.56 2.25
2.25 2.41 2.54 2.63 2.69 2.60 2.49 2.52 2.56 2.61 2.49 2.42 2.35 2.33 2.28 2.27 2.27 2.04 1.93 1.74 1.72 1.71 1.71 1.73 1.77 1.68 1.72 1.69 1.59 1.54 1.49 1.43 1.45 1.49 1.47 1.63 1.94 2.32 2.77 2.92 2.65 2.32 2.07
2.23 2.31 2.47 2.56 2.72 2.83 2.76 2.77 2.73 2.65 2.55 2.50 2.44 2.46 2.44 2.42 2.50 2.21 2.04 1.88 1.87 1.85 1.91 1.88 1.85 1.73 1.71 1.62 1.49 1.47 1.35 1.26 1.34 1.31 1.24 1.26 1.36 1.69 2.17 2.36 2.46 2.26 1.98
2.07 2.06 2.22 2.44 2.61 2.74 2.86 2.88 2.88 2.80 2.69 2.51 2.36 2.31 2.31 2.38 2.51 2.31 2.14 1.94 1.95 2.06 2.12 2.15 2.09 1.98 1.67 1.52 1.40 1.32 1.29 1.40 1.45 1.41 1.34 1.34 1.49 1.68 1.86 2.13 2.35 2.37 2.14
2.03 2.14 2.26 2.45 2.55 2.56 2.64 2.72 2.84 2.83 2.76 2.67 2.43 2.25 2.18 2.10 2.05 2.06 1.91 1.80 1.84 1.96 2.06 2.17 2.18 2.08 1.82 1.65 1.50 1.38 1.38 1.35 1.34 1.41 1.39 1.34 1.38 1.50 1.70 2.00 2.24 2.28 2.14
2.25 2.33 2.40 2.48 2.55 2.59 2.59 2.59 2.61 2.59 2.49 2.42 2.29 2.20 2.17 2.11 2.02 1.86 1.64 1.57 1.59 1.63 1.77 2.10 2.20 2.07 1.87 1.61 1.51 1.46 1.36 1.25 1.27 1.28 1.20 1.15 1.18 1.29 1.50 1.81 2.14 2.32 2.25
2.30 2.23 2.21 2.22 2.27 2.32 2.38 2.38 2.38 2.34 2.29 2.22 2.16 2.11 2.02 1.96 1.85 1.75 1.66 1.53 1.48 1.47 1.48 1.70 1.80 1.77 1.61 1.48 1.39 1.28 1.17 1.15 1.12 1.10 1.10 1.17 1.25 1.29 1.36 1.50 1.86 2.17 2.26
2.26 2.25 2.26 2.27 2.28 2.31 2.37 2.42 2.28 2.20 2.23 2.11 1.99 2.03 2.00 1.85 1.80 1.76 1.65 1.54 1.47 1.51 1.49 1.51 1.60 1.70 1.68 1.61 1.57 1.47 1.36 1.27 1.17 1.10 1.18 1.22 1.31 1.37 1.41 1.52 1.79 2.02 2.01
2.29 2.19 2.20 2.27 2.34 2.38 2.42 2.49 2.52 2.29 2.24 2.11 2.01 1.96 1.88 1.76 1.65 1.50 1.44 1.39 1.32 1.30 1.22 1.28 1.47 1.65 1.77 1.77 1.80 1.75 1.63 1.50 1.40 1.37 1.40 1.39 1.40 1.45 1.48 1.54 1.74 1.94 1.94
2.32 2.31 2.32 2.30 2.35 2.36 2.28 2.24 2.28 2.19 2.04 1.94 1.84 1.72 1.63 1.53 1.38 1.30 1.28 1.28 1.23 1.15 1.05 1.18 1.35 1.50 1.67 1.82 1.84 1.78 1.71 1.70 1.73 1.71 1.69 1.65 1.61 1.61 1.64 1.62 1.64 1.79 1.84
2.28 2.35 2.38 2.35 2.31 2.26 2.16 2.10 2.04 2.00 1.89 1.74 1.64 1.56 1.51 1.44 1.42 1.42 1.39 1.32 1.24 1.18 1.11 1.28 1.44 1.57 1.71 1.87 1.90 1.86 1.83 1.82 1.83 1.80 1.81 1.80 1.75 1.71 1.69 1.65 1.61 1.63 1.74
2.07 2.02 1.98 1.98 1.98 1.96 1.88 1.82 1.77 1.68 1.69 1.71 1.55 1.40 1.44 1.39 1.48 1.60 1.47 1.30 1.33 1.37 1.40 1.46 1.51 1.59 1.72 1.86 1.98 2.04 2.04 1.97 1.91 1.89 1.87 1.86 1.87 1.82 1.70 1.67 1.73 1.76 1.73
1.63 1.74 1.65 1.56 1.56 1.57 1.56 1.56 1.52 1.52 1.56 1.65 1.57 1.35 1.29 1.28 1.37 1.52 1.39 1.38 1.44 1.42 1.43 1.49 1.50 1.50 1.63 1.76 1.87 1.95 2.00 1.97 1.93 1.94 1.90 1.87 1.87 1.86 1.76 1.75 1.86 1.86 1.72
1.30 1.27 1.29 1.21 1.26 1.37 1.43 1.44 1.42 1.46 1.51 1.57 1.49 1.31 1.21 1.16 1.37 1.47 1.38 1.33 1.29 1.22 1.25 1.28 1.33 1.40 1.52 1.67 1.75 1.85 1.93 1.91 1.85 1.84 1.91 1.91 1.83 1.84 1.81 1.80 1.83 1.89 1.86
0.99 0.97 0.96 0.95 1.06 1.17 1.18 1.21 1.28 1.32 1.34 1.36 1.29 1.16 1.14 1.13 1.31 1.37 1.29 1.25 1.24 1.21 1.21 1.23 1.22 1.27 1.38 1.52 1.58 1.69 1.83 1.83 1.76 1.75 1.83 1.92 1.87 1.82 1.84 1.84 1.83 1.89 1.93
0.91 0.95 0.95 0.95 1.01 1.03 1.03 1.08 1.21 1.28 1.28 1.27 1.20 1.14 1.11 1.13 1.20 1.26 1.25 1.20 1.17 1.18 1.19 1.22 1.25 1.29 1.36 1.46 1.47 1.53 1.68 1.69 1.67 1.72 1.81 1.85 1.83 1.81 1.84 1.83 1.80 1.85 1.89
0.91 0.94 0.97 0.93 0.90 0.92 0.97 1.02 1.07 1.09 1.12 1.14 1.12 1.08 1.05 1.05 1.08 1.10 1.10 1.08 1.10 1.12 1.16 1.24 1.30 1.36 1.42 1.42 1.37 1.34 1.43 1.47 1.45 1.49 1.58 1.69 1.73 1.76 1.80 1.78 1.72 1.72 1.78
0.86 0.93 0.96 1.01 1.01 1.00 1.00 1.01 1.01 0.99 0.98 0.98 1.02 1.07 1.08 1.06 1.07 1.09 1.11 1.12 1.11 1.11 1.09 1.13 1.23 1.30 1.32 1.23 1.19 1.19 1.29 1.26 1.22 1.23 1.34 1.49 1.53 1.58 1.64 1.65 1.65 1.69 1.77
0.90 0.94 1.02 1.09 1.11 1.09 1.10 1.12 1.10 1.07 1.07 1.03 1.06 1.10 1.16 1.20 1.21 1.22 1.20 1.17 1.15 1.16 1.14 1.16 1.18 1.14 1.15 1.12 1.06 1.08 1.07 0.99 0.99 1.06 1.11 1.22 1.34 1.39 1.48 1.55 1.53 1.58 1.66